Back to catalog

NOAA 16 DEB

AliveSSO
NORAD 41510·DEBRIS·🇺🇸 United States

Launched Sep 21, 2000 from Vandenberg Space Force Base

Loading…

Next Passes (next 24 hours)

TLE

FreshSource: Space-Track

Epoch: Sep 13, 2026, 12:05 UTC

1 41510U 00055MJ  26256.50370706  .00002601  00000-0  10162-2 0  9991
2 41510  98.7559 350.6871 0024971 114.8608 245.5174 14.30284356542013

Track NOAA 16 DEB in real time with AllMySat

Download on the App Store